TimeCDT,TemperatureF,Dew PointF,Humidity,Sea Level PressureIn,VisibilityMPH,Wind Direction,Wind SpeedMPH,Gust SpeedMPH,PrecipitationIn,Events,Conditions,WindDirDegrees,DateUTC
12:53 AM,57.9,48.0,70,30.02,10.0,SE,3.5,-,N/A,,Clear,130,2013-06-09 05:53:00
1:53 AM,57.0,46.0,67,30.01,10.0,SE,5.8,-,N/A,,Clear,130,2013-06-09 06:53:00
2:53 AM,57.0,45.0,64,30.01,10.0,Calm,Calm,-,N/A,,Clear,0,2013-06-09 07:53:00
3:53 AM,55.9,46.9,72,29.99,10.0,Calm,Calm,-,N/A,,Clear,0,2013-06-09 08:53:00
4:53 AM,57.0,48.0,72,29.99,10.0,East,3.5,-,N/A,,Partly Cloudy,100,2013-06-09 09:53:00
5:53 AM,57.9,50.0,75,29.99,10.0,Calm,Calm,-,N/A,,Scattered Clouds,0,2013-06-09 10:53:00
6:53 AM,59.0,50.0,72,30.00,10.0,Calm,Calm,-,N/A,,Overcast,0,2013-06-09 11:53:00
7:53 AM,59.0,50.0,72,29.98,10.0,Calm,Calm,-,0.00,,Overcast,0,2013-06-09 12:53:00
8:53 AM,61.0,52.0,72,29.98,10.0,East,6.9,-,N/A,,Overcast,80,2013-06-09 13:53:00
9:53 AM,62.1,54.0,75,29.98,10.0,East,9.2,-,N/A,,Mostly Cloudy,100,2013-06-09 14:53:00
10:53 AM,64.0,55.9,75,29.96,10.0,East,10.4,-,N/A,,Mostly Cloudy,80,2013-06-09 15:53:00
11:53 AM,66.0,55.9,70,29.95,10.0,East,12.7,-,N/A,,Clear,80,2013-06-09 16:53:00
12:53 PM,70.0,57.9,65,29.93,10.0,East,9.2,-,N/A,,Clear,90,2013-06-09 17:53:00
1:53 PM,73.9,57.9,57,29.90,10.0,ESE,11.5,-,N/A,,Clear,110,2013-06-09 18:53:00
2:53 PM,73.9,55.9,53,29.88,10.0,East,17.3,-,N/A,,Clear,100,2013-06-09 19:53:00
3:53 PM,73.9,60.1,62,29.87,8.0,ESE,15.0,19.6,N/A,,Clear,120,2013-06-09 20:53:00
4:53 PM,72.0,61.0,68,29.86,7.0,ESE,12.7,20.7,N/A,,Clear,110,2013-06-09 21:53:00
5:53 PM,72.0,60.1,66,29.86,8.0,ESE,10.4,-,N/A,,Clear,120,2013-06-09 22:53:00
6:53 PM,72.0,60.1,66,29.85,10.0,ESE,11.5,-,N/A,,Partly Cloudy,110,2013-06-09 23:53:00
7:53 PM,68.0,59.0,73,29.85,6.0,East,8.1,-,N/A,,Haze,100,2013-06-10 00:53:00
8:53 PM,66.9,57.9,73,29.85,8.0,East,10.4,-,N/A,,Overcast,100,2013-06-10 01:53:00
9:53 PM,66.0,57.0,73,29.85,8.0,ESE,8.1,-,N/A,,Overcast,110,2013-06-10 02:53:00
10:53 PM,64.9,57.0,75,29.84,9.0,ESE,9.2,-,N/A,,Clear,120,2013-06-10 03:53:00
11:53 PM,64.9,57.9,78,29.83,8.0,ESE,9.2,-,N/A,,Scattered Clouds,120,2013-06-10 04:53:00